Weather History for KCQX - April, 2013

Change the Weather History Date:

Tuesday, April 2, 2013

  Actual Average Record
Temperature  
Mean Temperature 34 °F -  
Max Temperature 42 °F 45 °F 66 °F (1986)
Min Temperature 30 °F 34 °F 25 °F (2015)
Degree Days  
Heating Degree Days 30    
Moisture  
Dew Point 13 °F    
Average Humidity 39    
Maximum Humidity 47    
Minimum Humidity 27    
Precipitation  
Precipitation 0.00 in - - ()
Sea Level Pressure  
Sea Level Pressure 29.89 in    
Wind  
Wind Speed 9 mph (West)    
Max Wind Speed 17 mph    
Max Gust Speed 30 mph    
Visibility 10 miles    
Events      
Averages and records for this station are not official NWS values.
T = Trace of Precipitation, MM = Missing Value Source: NWS Daily Summary

Daily Weather History Graph

Daily Weather History Graph

Search for Another Location

Airport or City:

Trip Planner

Search our weather history database for the weather conditions in past years. The results will help you decide how hot, cold, wet, or windy it might be!

Date:

Astronomy

Apr. 02, 2013 Rise Set
Actual Time 6:20 AM EDT 7:06 PM EDT
Civil Twilight 5:52 AM EDT 7:34 PM EDT
Nautical Twilight 5:19 AM EDT 8:08 PM EDT
Astronomical Twilight 4:45 AM EDT 8:42 PM EDT
Moon 1:11 AM EDT 11:04 AM EDT
Length of Visible Light 13h 42m
Length of Day
12h 45m
Waning Gibbous, 56% of the Moon is Illuminated
Apr 2
Waning Gibbous
Apr 3
Last Quarter
Apr 10
New
Apr 18
First Quarter
Apr 25
Full

Hourly Weather History & Observations

Time (EDT) Temp. Windchill Dew Point Humidity Pressure Visibility Wind Dir Wind Speed Gust Speed Precip Events Conditions
12:52 AM 37.0 °F 30.4 °F 14.0 °F 39% 29.81 in 10.0 mi WNW 9.2 mph 20.7 mph N/A   Clear
1:52 AM 36.0 °F 29.6 °F 12.0 °F 37% 29.83 in 10.0 mi WNW 8.1 mph 16.1 mph N/A   Clear
2:52 AM 35.1 °F 28.6 °F 14.0 °F 42% 29.83 in 10.0 mi WNW 8.1 mph 20.7 mph N/A   Clear
3:52 AM 34.0 °F 27.2 °F 10.9 °F 38% 29.85 in 10.0 mi WNW 8.1 mph 21.9 mph N/A   Clear
4:52 AM 33.1 °F 26.9 °F 12.0 °F 42% 29.86 in 10.0 mi Variable 6.9 mph - N/A   Clear
5:52 AM 32.0 °F 25.6 °F 12.0 °F 44% 29.88 in 10.0 mi West 6.9 mph - N/A   Clear
6:52 AM 30.9 °F 26.2 °F 12.9 °F 47% 29.90 in 10.0 mi West 4.6 mph - N/A   Clear
7:52 AM 34.0 °F 27.2 °F 15.1 °F 46% 29.92 in 10.0 mi West 8.1 mph 16.1 mph N/A   Clear
8:52 AM 36.0 °F 30.3 °F 14.0 °F 41% 29.93 in 10.0 mi Variable 6.9 mph 20.7 mph N/A   Clear
9:52 AM 37.9 °F 30.5 °F 15.1 °F 39% 29.91 in 10.0 mi WSW 11.5 mph 21.9 mph N/A   Scattered Clouds
10:52 AM 39.9 °F 32.1 °F 17.1 °F 40% 29.91 in 10.0 mi WSW 13.8 mph 27.6 mph N/A   Mostly Cloudy
11:52 AM 39.0 °F 30.6 °F 17.1 °F 41% 29.89 in 10.0 mi SW 15.0 mph 23.0 mph N/A   Mostly Cloudy
1:52 PM 39.0 °F 29.9 °F 19.0 °F 45% 29.87 in 10.0 mi SW 17.3 mph 28.8 mph N/A   Overcast
2:52 PM 39.0 °F 31.8 °F 18.0 °F 43% 29.86 in 10.0 mi WSW 11.5 mph 26.5 mph N/A   Overcast
3:52 PM 39.0 °F 31.0 °F 19.0 °F 45% 29.85 in 10.0 mi WSW 13.8 mph 29.9 mph N/A   Overcast
4:52 PM 39.9 °F 32.1 °F 21.0 °F 47% 29.84 in 10.0 mi SW 13.8 mph 27.6 mph N/A   Overcast
5:52 PM 39.9 °F 32.9 °F 9.0 °F 28% 29.87 in 10.0 mi West 11.5 mph 20.7 mph N/A   Mostly Cloudy
6:52 PM 39.0 °F 31.8 °F 7.0 °F 27% 29.90 in 10.0 mi West 11.5 mph 24.2 mph N/A   Partly Cloudy
7:52 PM 37.0 °F 31.0 °F 8.1 °F 30% 29.93 in 10.0 mi West 8.1 mph - N/A   Clear
8:52 PM 36.0 °F 29.0 °F 9.0 °F 33% 29.96 in 10.0 mi West 9.2 mph 17.3 mph N/A   Clear
9:52 PM 36.0 °F 29.6 °F 9.0 °F 33% 29.98 in 10.0 mi West 8.1 mph 20.7 mph N/A   Clear
10:52 PM 34.0 °F 28.8 °F 10.9 °F 38% 29.98 in 10.0 mi West 5.8 mph - N/A   Clear
11:52 PM 32.0 °F 26.4 °F 10.9 °F 42% 29.99 in 10.0 mi Variable 5.8 mph - N/A   Clear